Regional Weather Roundup
Issued by NWS Charleston, WV

Home | Current Version | Previous Version | Graphics & Text | Print | Product List | Glossary On
Versions: 1 2 3 4 5 6 7 8 9 10 11 12 13 14 15 16 17 18 19 20 21 22 23 24 25 26 27 28 29 30 31 32 33 34 35 36 37 38 39 40 41 42 43 44 45 46 47 48 49 50
773
ASUS41 KRLX 112310
RWRRLX
West Virginia Regional Weather Roundup
National Weather Service Charleston WV
600 PM EST MON DEC 11 2017

Note: "fair" indicates few or no clouds below 12,000 feet with no
significant weather and/or obstructions to visibility.

WVZ003-120000-
Northern Panhandle of West Virginia

CITY           SKY/WX    TMP DP  RH WIND       PRES   REMARKS
WHEELING       MOCLDY    36  20  52 CALM      29.83F
$$

WVZ009-120000-
Northwest West Virginia

CITY           SKY/WX    TMP DP  RH WIND       PRES   REMARKS
PARKERSBURG    PTCLDY    41  23  48 E3        29.84F
$$

WVZ006-120000-
Western West Virginia

CITY           SKY/WX    TMP DP  RH WIND       PRES   REMARKS
HUNTINGTON     MOCLDY    49  24  37 S3        29.78F
$$

WVZ015-120000-
West Central West Virginia

CITY           SKY/WX    TMP DP  RH WIND       PRES   REMARKS
CHARLESTON     PTCLDY    43  24  47 CALM      29.80F
$$

WVZ022-031-120000-
North Central West Virginia

CITY           SKY/WX    TMP DP  RH WIND       PRES   REMARKS
CLARKSBURG     PTCLDY    40  22  48 CALM      29.83F
MORGANTOWN     CLOUDY    40  21  46 CALM      29.84F
$$

WVZ025-035-042-045-120000-
Southern West Virginia

CITY           SKY/WX    TMP DP  RH WIND       PRES   REMARKS
BECKLEY        CLEAR     42  21  43 S7        29.83F
LOGAN            N/A     46  25  42 S5G12     29.80F
BLUEFIELD      CLEAR     41  22  46 S5        29.86F
LEWISBURG      CLEAR     40  25  54 CALM      29.86F
$$

WVZ047-120000-
Northern Mountains of West Virginia

CITY           SKY/WX    TMP DP  RH WIND       PRES   REMARKS
ELKINS         CLEAR     31  21  66 CALM      29.82F
$$

WVZ052-120000-
Eastern Panhandle of West Virginia

CITY           SKY/WX    TMP DP  RH WIND       PRES   REMARKS
MARTINSBURG    PTCLDY    42  23  46 SE3       29.91S
PETERSBURG     CLOUDY    37  24  59 W5        29.88R
$$




USA.gov is the U.S. government's official web portal to all federal, state and local government web resources and services.